{"data":{"norad_id":50173,"intl_designator":"2021-125T","name":"STARLINK-3289","alt_names":[],"object_type":"PAYLOAD","status":"ACTIVE","operator":null,"country":"US","launch_date":"2021-12-18","launch_site_code":"AFWTR","launch_vehicle":null,"mission":null,"orbit_class":"UNKNOWN","rcs_meters":null,"size_class":null,"mass_kg":null,"dimensions":null,"purposes":["comms"],"wikipedia_slug":null,"has_3d_model":false,"image_url":null,"decayed_at":null,"tle_current":{"epoch":"2026-09-20T03:34:27.316128Z","epoch_age_seconds":66589,"freshness":"FRESH","line1":"1 50173U 21125T   26263.14892727  .00008592  00000+0  44384-3 0  9995","line2":"2 50173  53.2117  79.3004 0002586 100.8390 259.2897 15.17071371266203","mean_motion":15.17071371,"eccentricity":0.0002586,"inclination_deg":53.2117,"raan_deg":79.3004,"arg_perigee_deg":100.839,"mean_anomaly_deg":259.2897,"bstar":0.00044384,"rev_number":26620,"period_min":94.919726752922,"perigee_km":512.91472420919,"apogee_km":516.47969806319,"semimajor_km":6892.8342111362,"source":"CELESTRAK","updated_at":"2026-09-20T09:00:39.415256Z"}}}